Location: *
(44.1392°N, 4.8079°E)
Time: 08:28:33
(UTC+00:00)

Cosmos-2242 - Pass Details

Date: 21 June 2021
Orbit: 590 x 617 km, 82.5° (Epoch: 02 August)

Event Time Altitude Azimuth Distance (km) Brightness Sun altitude
Rises 00:03:26 0° 348° (NNW) 2,902 7.8 -22.3°
Reaches altitude 10° 00:05:42 10° 345° (NNW) 1,991 6.6 -22.2°
Maximum altitude 00:10:03 63° 265° (W) 694 3.1 -22.1°
Enters shadow 00:10:26 60° 237° (WSW) 712 3.1 -22.1°
